GW5937 Weather Reports


time (UTC)temp
C
wind
direction
speed
KPH
gust
KPH
rain 1hr
cm
rain 24hr
cm
rain mn
cm
humidity
%
barometer
mb
20260507140356 21 115 11.3 24.1 0.03 0.03 0.03 88 1008.5
20260507135856 21 126 9.7 20.9 0.03 0.03 0.03 87 1008.6
20260507135356 21 110 9.7 19.3 0.03 0.03 0.03 88 1009.1
20260507134855 21 108 8.0 19.3 0.03 0.03 0.03 89 1009.0
20260507134358 21 117 4.8 14.5 0.03 0.03 0.03 89 1010.4
20260507133854 21 123 3.2 11.3 0.03 0.03 0.03 89 1010.9
20260507133728 21 130 3.2 9.7 0.03 0.03 0.03 88 1011.2
20260507132841 21 118 1.6 6.4 0.03 0.03 0.03 88 1011.5
20260507132334 21 159 1.6 8.0 0.03 0.03 0.03 87 1011.7
20260507131834 21 185 1.6 8.0 0.00 0.00 0.00 87 1012.1
20260507131334 21 175 3.2 9.7 0.00 0.00 0.00 86 1012.4
20260507130835 21 151 4.8 14.5 0.00 0.00 0.00 84 1012.6
20260507130334 22 213 6.4 14.5 0.00 0.00 0.00 84 1012.8
20260507130210 22 155 6.4 17.7 0.00 0.00 0.00 82 1012.6
20260507125709 22 174 8.0 22.5 0.00 0.00 0.00 82 1012.7
20260507125154 22 173 9.7 22.5 0.00 0.00 0.00 81 1011.9
20260507124331 22 134 9.7 22.5 0.00 0.00 0.00 81 1010.4
20260507123832 21 150 12.9 25.7 0.00 0.00 0.00 83 1009.7
20260507123331 21 111 12.9 25.7 0.00 0.00 0.00 81 1009.1
20260507122829 21 131 12.9 25.7 0.00 0.00 0.00 81 1008.6
20260507122731 21 128 12.9 29.0 0.00 0.00 0.00 81 1008.2
20260507121835 21 80 14.5 29.0 0.00 0.00 0.00 82 1008.4
20260507121329 21 99 12.9 27.4 0.00 0.00 0.00 83 1008.9
20260507120829 21 119 9.7 19.3 0.00 0.00 0.00 83 1009.3
20260507120330 21 107 4.8 12.9 0.00 0.00 0.00 84 1010.3
20260507120159 21 118 3.2 9.7 0.00 0.00 0.00 84 1010.7
20260507115330 21 100 3.2 4.8 0.00 0.00 0.00 84 1011.1
20260507114831 21 120 1.6 4.8 0.00 0.00 0.00 84 1011.3
20260507114329 21 165 1.6 3.2 0.00 0.00 0.00 84 1011.6
20260507113830 21 165 1.6 3.2 0.00 0.00 0.00 83 1011.6
20260507113329 21 160 1.6 4.8 0.00 0.00 0.00 83 1011.7
20260507112830 21 130 3.2 4.8 0.00 0.00 0.00 83 1011.5
20260507112331 21 145 3.2 4.8 0.00 0.00 0.00 83 1011.5
20260507111835 21 130 3.2 4.8 0.00 0.00 0.00 83 1011.4
20260507111335 21 177 1.6 6.4 0.00 0.00 0.00 82 1011.5
20260507110830 21 177 1.6 6.4 0.00 0.00 0.00 82 1011.8
20260507110335 21 177 1.6 11.3 0.00 0.00 0.00 82 1011.9
20260507110201 21 177 1.6 11.3 0.00 0.00 0.00 82 1012.1
20260507105332 21 177 3.2 11.3 0.00 0.00 0.00 82 1012.0
20260507104830 21 161 3.2 11.3 0.00 0.00 0.00 82 1012.1
20260507104330 21 198 1.6 4.8 0.00 0.00 0.00 81 1012.0
20260507103830 21 158 1.6 4.8 0.00 0.00 0.00 82 1012.1
20260507103330 21 190 3.2 9.7 0.00 0.00 0.00 83 1012.0
20260507103201 21 190 3.2 9.7 0.00 0.00 0.00 82 1012.0
20260507102330 21 208 3.2 9.7 0.00 0.00 0.00 83 1012.0
20260507101830 21 148 3.2 9.7 0.00 0.00 0.00 82 1012.0
20260507101328 21 169 4.8 14.5 0.00 0.00 0.00 82 1012.3
20260507100833 21 134 4.8 14.5 0.00 0.00 0.00 82 1012.2
20260507100331 21 202 3.2 12.9 0.00 0.00 0.00 83 1012.5
20260507095830 21 195 4.8 9.7 0.00 0.00 0.00 83 1012.6
20260507095329 21 229 4.8 9.7 0.00 0.00 0.00 83 1012.8
20260507094833 21 189 3.2 8.0 0.00 0.00 0.00 84 1012.8
20260507094331 21 221 3.2 9.7 0.00 0.00 0.00 85 1012.7
20260507093835 21 190 3.2 12.9 0.00 0.00 0.00 85 1012.6
20260507093331 21 175 4.8 12.9 0.00 0.00 0.00 84 1012.7
20260507092831 21 206 4.8 12.9 0.00 0.00 0.00 84 1012.6
20260507092330 21 222 1.6 12.9 0.00 0.00 0.00 84 1012.4
20260507091831 21 196 1.6 3.2 0.00 0.00 0.00 85 1012.2
20260507091705 21 194 1.6 4.8 0.00 0.00 0.00 85 1012.1
20260507090829 21 196 1.6 6.4 0.00 0.00 0.00 85 1011.9
20260507090323 21 206 1.6 6.4 0.00 0.00 0.00 85 1011.8
20260507090149 21 200 1.6 4.8 0.00 0.00 0.00 85 1011.4
20260507085634 21 244 1.6 6.4 0.00 0.00 0.00 85 1011.3
20260507084815 21 214 1.6 6.4 0.00 0.00 0.00 84 1011.1
20260507084315 21 205 1.6 6.4 0.00 0.00 0.00 84 1010.6
20260507083815 21 202 0.0 6.4 0.00 0.00 0.00 84 1010.4
20260507083635 22 173 0.0 3.2 0.00 0.00 0.00 83 1010.4
20260507082815 22 173 1.6 4.8 0.00 0.00 0.00 83 1010.4
20260507082314 22 199 1.6 4.8 0.00 0.00 0.00 83 1010.6
20260507082142 22 211 0.0 3.2 0.00 0.00 0.00 83 1010.3
20260507081311 22 173 0.0 3.2 0.00 0.00 0.00 82 1010.1
20260507080811 22 173 1.6 3.2 0.00 0.00 0.00 81 1010.2
20260507080313 22 154 1.6 6.4 0.00 0.00 0.00 81 1010.2
20260507075811 22 184 1.6 6.4 0.00 0.00 0.00 81 1010.1
20260507075309 22 188 1.6 6.4 0.00 0.00 0.00 80 1009.9
20260507074807 22 174 1.6 6.4 0.00 0.00 0.00 80 1009.8
20260507074310 23 138 3.2 6.4 0.00 0.00 0.00 80 1009.9
20260507073807 23 161 1.6 6.4 0.00 0.00 0.00 80 1009.9
20260507073307 23 184 1.6 12.9 0.00 0.00 0.00 79 1009.8
20260507072807 23 123 3.2 12.9 0.00 0.00 0.00 78 1009.8
20260507072308 23 151 3.2 8.0 0.00 0.00 0.00 78 1010.0
20260507071805 23 151 3.2 11.3 0.00 0.00 0.00 77 1010.2
20260507071306 23 158 3.2 11.3 0.00 0.00 0.00 75 1010.3
20260507070805 23 192 4.8 14.5 0.00 0.00 0.00 75 1010.2
20260507070302 23 229 4.8 14.5 0.00 0.00 0.00 75 1010.2
20260507065803 23 71 6.4 14.5 0.00 0.00 0.00 75 1010.2
20260507065306 23 141 4.8 14.5 0.00 0.00 0.00 75 1010.2
20260507065134 23 152 4.8 12.9 0.00 0.00 0.00 75 1010.2
20260507064301 23 122 6.4 16.1 0.00 0.00 0.00 75 1010.2
20260507063804 23 105 6.4 16.1 0.00 0.00 0.00 74 1010.2
20260507063636 23 123 6.4 16.1 0.00 0.00 0.00 74 1010.2
20260507063135 23 99 6.4 16.1 0.00 0.00 0.00 73 1010.3
20260507062306 23 170 6.4 16.1 0.00 0.00 0.00 73 1010.4
20260507062146 23 130 6.4 16.1 0.00 0.00 0.00 73 1010.6
20260507061303 23 142 6.4 16.1 0.00 0.00 0.00 73 1010.8
20260507060801 23 138 6.4 14.5 0.00 0.00 0.00 73 1010.9
20260507060621 23 117 6.4 14.5 0.00 0.00 0.00 73 1011.0
20260507055801 23 111 6.4 16.1 0.00 0.00 0.00 73 1010.9
20260507055305 23 118 6.4 16.1 0.00 0.00 0.00 73 1010.9
20260507054802 23 126 6.4 14.5 0.00 0.00 0.00 72 1011.0
20260507054301 24 96 8.0 16.1 0.00 0.00 0.00 72 1011.2
20260507053802 23 136 6.4 16.1 0.00 0.00 0.00 72 1011.3
20260507053303 23 173 6.4 16.1 0.00 0.00 0.00 72 1011.5
20260507052801 23 164 6.4 19.3 0.00 0.00 0.00 73 1011.5
20260507052301 24 109 8.0 19.3 0.00 0.00 0.00 72 1011.6
20260507051801 24 150 8.0 19.3 0.00 0.00 0.00 72 1011.6
20260507051300 24 121 8.0 19.3 0.00 0.00 0.00 72 1011.7
20260507050801 24 113 6.4 19.3 0.00 0.00 0.00 72 1011.9
20260507050301 24 121 8.0 19.3 0.00 0.00 0.00 72 1011.8
20260507045801 24 144 8.0 24.1 0.00 0.00 0.00 73 1011.8
20260507045336 24 132 11.3 24.1 0.00 0.00 0.00 73 1011.7
20260507045321 24 128 8.0 24.1 0.00 0.00 0.00 73 1011.8
20260507043801 24 146 11.3 25.7 0.00 0.00 0.00 74 1011.8
20260507043300 24 151 9.7 25.7 0.00 0.00 0.00 74 1011.7
20260507042800 24 163 9.7 25.7 0.00 0.00 0.00 74 1011.7
20260507042306 24 98 11.3 24.1 0.00 0.00 0.00 74 1011.5
20260507042122 24 103 11.3 24.1 0.00 0.00 0.00 74 1011.7
20260507041301 24 171 9.7 24.1 0.00 0.00 0.00 74 1011.8
20260507040801 24 162 9.7 29.0 0.00 0.00 0.00 74 1011.9
20260507040301 24 131 11.3 29.0 0.00 0.00 0.00 73 1011.8
20260507040119 24 146 11.3 27.4 0.00 0.00 0.00 73 1011.7
20260507035301 24 166 12.9 27.4 0.00 0.00 0.00 73 1011.7
20260507034801 24 130 14.5 33.8 0.00 0.00 0.00 72 1011.6
20260507034301 24 121 12.9 33.8 0.00 0.00 0.00 72 1011.6
20260507034126 24 111 12.9 29.0 0.00 0.00 0.00 71 1011.7
20260507033301 24 143 12.9 29.0 0.00 0.00 0.00 72 1011.7
20260507033124 24 165 11.3 33.8 0.00 0.00 0.00 72 1011.7
20260507032305 24 130 11.3 33.8 0.00 0.00 0.00 72 1011.7
20260507031801 24 121 12.9 33.8 0.00 0.00 0.00 73 1011.7
20260507031304 24 121 14.5 33.8 0.00 0.00 0.00 73 1011.6
20260507030929 24 121 14.5 33.8 0.00 0.00 0.00 74 1011.7
20260507025802 24 149 12.9 35.4 0.00 0.00 0.00 75 1011.5
20260507025306 24 156 14.5 35.4 0.00 0.00 0.00 76 1011.5
20260507025132 23 139 12.9 27.4 0.00 0.00 0.00 76 1011.5
20260507024301 23 167 14.5 27.4 0.00 0.00 0.00 76 1011.4
20260507023800 23 128 14.5 27.4 0.00 0.00 0.00 76 1011.3
20260507023304 23 125 12.9 29.0 0.00 0.00 0.00 77 1011.2
20260507023130 23 104 12.9 29.0 0.00 0.00 0.00 77 1011.4
20260507022301 23 135 11.3 37.0 0.00 0.00 0.00 77 1011.5
20260507021759 23 98 11.3 37.0 0.00 0.00 0.00 77 1011.6
20260507021300 23 119 12.9 37.0 0.00 0.00 0.00 77 1011.7
20260507020759 23 146 12.9 37.0 0.00 0.00 0.00 78 1011.7
20260507020258 23 140 12.9 27.4 0.00 0.00 0.00 78 1011.7
20260507015800 23 129 12.9 27.4 0.00 0.00 0.00 77 1011.6
20260507015256 23 138 11.3 27.4 0.00 0.00 0.00 77 1011.6
20260507014755 23 104 9.7 27.4 0.00 0.00 0.00 78 1011.9
20260507014254 23 109 11.3 27.4 0.00 0.00 0.00 78 1011.8
20260507013750 23 155 11.3 27.4 0.00 0.00 0.00 77 1011.9
20260507013250 23 132 11.3 22.5 0.00 0.00 0.00 78 1011.9
20260507012754 23 103 9.7 20.9 0.00 0.00 0.00 78 1012.0
20260507012248 23 114 8.0 19.3 0.00 0.00 0.00 78 1012.2
20260507012120 23 126 9.7 17.7 0.00 0.00 0.00 79 1012.2
20260507011238 23 157 9.7 19.3 0.00 0.00 0.00 79 1012.0
20260507010738 23 107 9.7 17.7 0.00 0.00 0.00 80 1012.0
20260507010236 23 106 9.7 19.3 0.00 0.00 0.00 80 1012.1
20260507005737 23 126 8.0 19.3 0.00 0.00 0.00 80 1012.1
20260507005240 23 81 8.0 17.7 0.00 0.00 0.00 79 1012.0
20260507004737 23 138 8.0 17.7 0.00 0.00 0.00 79 1011.9
20260507004240 23 138 8.0 22.5 0.00 0.00 0.00 79 1012.0
20260507003732 23 90 9.7 22.5 0.00 0.00 0.00 79 1011.6
20260507003231 23 105 11.3 22.5 0.00 0.00 0.00 78 1011.6
20260507002730 23 113 9.7 22.5 0.00 0.00 0.00 78 1011.8
20260507002230 23 135 9.7 19.3 0.00 0.00 0.00 78 1012.0
20260507001731 23 105 9.7 19.3 0.00 0.00 0.00 77 1012.0
20260507001232 23 93 8.0 19.3 0.00 0.00 0.00 77 1011.9
20260507000730 23 103 9.7 19.3 0.00 0.00 0.00 76 1011.8
20260507000601 24 117 9.7 20.9 0.00 0.00 0.00 76 1011.7
20260506235729 24 123 8.0 20.9 0.00 0.00 0.00 75 1011.7
20260506235228 24 113 8.0 19.3 0.00 0.00 0.00 75 1011.7
20260506234730 24 91 9.7 24.1 0.00 0.00 0.00 75 1011.6
20260506234231 24 150 11.3 24.1 0.00 0.00 0.00 74 1011.6
20260506233726 24 100 11.3 24.1 0.00 0.00 0.00 74 1011.5
20260506233547 24 99 9.7 24.1 0.00 0.00 0.00 73 1011.5
20260506232714 25 107 9.7 20.9 0.00 0.00 0.00 73 1011.6
20260506232206 25 103 11.3 25.7 0.00 0.00 0.00 73 1011.5
20260506231705 25 114 11.3 25.7 0.00 0.00 0.00 72 1011.7
20260506231204 25 126 11.3 25.7 0.00 0.00 0.00 71 1011.7
20260506230704 25 132 14.5 25.7 0.00 0.00 0.00 70 1011.7
20260506230204 25 104 12.9 25.7 0.00 0.00 0.00 69 1011.9
20260506225704 26 122 9.7 25.7 0.00 0.00 0.00 69 1011.9
20260506225524 26 78 9.7 29.0 0.00 0.00 0.00 68 1011.8
20260506224702 26 109 9.7 29.0 0.00 0.00 0.00 68 1011.7
20260506224202 26 128 9.7 29.0 0.00 0.00 0.00 68 1011.7
20260506223701 26 125 12.9 29.0 0.00 0.00 0.00 69 1011.8
20260506223207 26 140 12.9 29.0 0.00 0.00 0.00 69 1011.9
20260506222701 26 150 12.9 24.1 0.00 0.00 0.00 69 1011.9
20260506222543 26 123 11.3 24.1 0.00 0.00 0.00 69 1011.9
20260506221702 26 96 9.7 24.1 0.00 0.00 0.00 70 1012.1
20260506221201 26 108 9.7 27.4 0.00 0.00 0.00 71 1012.1
20260506220701 26 103 11.3 27.4 0.00 0.00 0.00 70 1012.0
20260506220202 26 119 12.9 27.4 0.00 0.00 0.00 71 1011.9
20260506215703 26 124 12.9 27.4 0.00 0.00 0.00 71 1011.9
20260506215202 26 94 12.9 25.7 0.00 0.00 0.00 70 1011.8
20260506214701 26 177 14.5 27.4 0.00 0.00 0.00 70 1011.8
20260506214201 26 98 16.1 33.8 0.00 0.00 0.00 70 1011.9
20260506214032 26 107 16.1 33.8 0.00 0.00 0.00 71 1011.9
20260506213205 26 109 14.5 29.0 0.00 0.00 0.00 70 1011.9
20260506212706 26 69 14.5 29.0 0.00 0.00 0.00 70 1012.0
20260506212204 26 83 14.5 27.4 0.00 0.00 0.00 70 1012.0
20260506211701 26 137 14.5 27.4 0.00 0.00 0.00 69 1012.0
20260506211204 26 97 14.5 27.4 0.00 0.00 0.00 68 1012.0
20260506210701 26 134 12.9 27.4 0.00 0.00 0.00 69 1012.2
20260506210202 27 153 12.9 30.6 0.00 0.00 0.00 69 1012.2
20260506205703 26 97 12.9 30.6 0.00 0.00 0.00 69 1012.0
20260506205202 26 62 14.5 30.6 0.00 0.00 0.00 68 1012.1
20260506204704 26 109 12.9 30.6 0.00 0.00 0.00 68 1012.1
20260506204202 27 115 12.9 25.7 0.00 0.00 0.00 67 1012.1
20260506203925 27 151 11.3 25.7 0.00 0.00 0.00 67 1012.1
20260506203200 27 126 11.3 25.7 0.00 0.00 0.00 68 1012.1
20260506202659 27 147 14.5 29.0 0.00 0.00 0.00 67 1012.1
20260506202159 26 99 14.5 29.0 0.00 0.00 0.00 67 1012.2
20260506201658 26 109 12.9 29.0 0.00 0.00 0.00 67 1012.2
20260506201536 27 130 14.5 29.0 0.00 0.00 0.00 66 1012.3
20260506200656 27 118 16.1 29.0 0.00 0.00 0.00 66 1012.3
20260506200524 27 111 16.1 29.0 0.00 0.00 0.00 66 1012.5
20260506195658 27 67 16.1 29.0 0.00 0.00 0.00 66 1012.4
20260506195200 27 138 12.9 29.0 0.00 0.00 0.00 66 1012.4
20260506194657 27 136 11.3 29.0 0.00 0.00 0.00 66 1012.4
20260506194526 27 81 14.5 30.6 0.00 0.00 0.00 66 1012.4
20260506194031 27 137 12.9 30.6 0.00 0.00 0.00 65 1012.5
20260506193155 27 111 12.9 30.6 0.00 0.00 0.00 65 1012.4
20260506192656 27 98 14.5 30.6 0.00 0.00 0.00 65 1012.4
20260506192156 27 125 9.7 27.4 0.00 0.00 0.00 65 1012.5
20260506191654 27 92 11.3 29.0 0.00 0.00 0.00 65 1012.6
20260506191154 27 106 12.9 29.0 0.00 0.00 0.00 66 1012.6
20260506190654 27 82 12.9 27.4 0.00 0.00 0.00 66 1012.7
20260506190314 27 99 11.3 27.4 0.00 0.00 0.00 64 1012.8
20260506185154 27 116 14.5 25.7 0.00 0.00 0.00 67 1012.9
20260506184654 26 98 17.7 29.0 0.00 0.00 0.00 67 1013.0
20260506184154 26 92 16.1 30.6 0.00 0.00 0.00 66 1013.2
20260506183650 27 71 14.5 30.6 0.00 0.00 0.00 66 1013.1
20260506183151 27 90 14.5 30.6 0.00 0.00 0.00 66 1013.2
20260506182650 27 65 16.1 30.6 0.00 0.00 0.00 65 1013.3
20260506182149 27 111 16.1 29.0 0.00 0.00 0.00 65 1013.3
20260506181651 27 88 12.9 27.4 0.00 0.00 0.00 64 1013.4
20260506181548 27 101 12.9 29.0 0.00 0.00 0.00 65 1013.4
20260506180650 27 105 12.9 29.0 0.00 0.00 0.00 62 1013.4
20260506180151 27 140 11.3 27.4 0.00 0.00 0.00 65 1013.4
20260506175650 27 107 12.9 27.4 0.00 0.00 0.00 64 1013.6
20260506175146 27 91 11.3 27.4 0.00 0.00 0.00 66 1013.7
20260506174646 27 135 11.3 27.4 0.00 0.00 0.00 64 1013.7
20260506174146 27 111 12.9 27.4 0.00 0.00 0.00 64 1013.8
20260506173651 27 157 12.9 27.4 0.00 0.00 0.00 63 1013.8
20260506173149 27 98 12.9 24.1 0.00 0.00 0.00 62 1014.0
20260506172650 27 145 12.9 22.5 0.00 0.00 0.00 63 1014.1
20260506172146 27 103 11.3 22.5 0.00 0.00 0.00 63 1014.3
20260506172000 27 112 9.7 22.5 0.00 0.00 0.00 62 1014.3
20260506171146 27 113 8.0 19.3 0.00 0.00 0.00 64 1014.3
20260506171017 27 115 9.7 22.5 0.00 0.00 0.00 64 1014.3
20260506170142 27 127 8.0 22.5 0.00 0.00 0.00 64 1014.4
20260506165643 27 100 8.0 22.5 0.00 0.00 0.00 65 1014.4
20260506165511 27 139 11.3 24.1 0.00 0.00 0.00 64 1014.4
20260506165010 27 118 9.7 24.1 0.00 0.00 0.00 62 1014.6
20260506164140 28 91 8.0 24.1 0.00 0.00 0.00 61 1014.6
20260506163638 28 130 6.4 24.1 0.00 0.00 0.00 60 1014.6
20260506163459 28 140 8.0 22.5 0.00 0.00 0.00 60 1014.5
20260506162635 28 154 9.7 20.9 0.00 0.00 0.00 53 1014.6
20260506162134 28 108 9.7 19.3 0.00 0.00 0.00 53 1014.6
20260506161632 28 188 8.0 19.3 0.00 0.00 0.00 54 1014.7
20260506161132 28 165 8.0 25.7 0.00 0.00 0.00 53 1014.8
20260506160629 28 98 8.0 25.7 0.00 0.00 0.00 53 1014.7
20260506160132 27 189 6.4 16.1 0.00 0.00 0.00 55 1015.1
20260506160001 27 121 6.4 22.5 0.00 0.00 0.00 56 1015.0
20260506155123 27 97 6.4 22.5 0.00 0.00 0.00 55 1015.0
20260506154619 27 229 6.4 22.5 0.00 0.00 0.00 56 1014.8
20260506154117 27 135 9.7 22.5 0.00 0.00 0.00 56 1014.9
20260506153617 26 122 8.0 16.1 0.00 0.00 0.00 58 1014.9
20260506153114 26 175 8.0 16.1 0.00 0.00 0.00 57 1015.0
20260506152616 26 200 9.7 19.3 0.00 0.00 0.00 59 1015.1
20260506152112 26 159 8.0 19.3 0.00 0.00 0.00 59 1015.2
20260506151615 26 105 6.4 17.7 0.00 0.00 0.00 58 1015.2
20260506151110 26 132 8.0 22.5 0.00 0.00 0.00 58 1015.3
20260506151100 26 146 8.0 22.5 0.00 0.00 0.00 59 1015.2
20260506150325 26 134 8.0 24.1 0.00 0.00 0.00 59 1015.0
20260506145656 26 136 9.7 24.1 0.00 0.00 0.00 59 1014.8
20260506145106 26 175 9.7 25.7 0.00 0.00 0.00 60 1014.8
20260506144602 25 173 9.7 25.7 0.00 0.00 0.00 60 1014.7
20260506144102 25 137 8.0 24.1 0.00 0.00 0.00 61 1014.7
20260506143612 25 197 8.0 22.5 0.00 0.00 0.00 61 1014.7
20260506143106 25 137 8.0 22.5 0.00 0.00 0.00 62 1014.8
20260506142606 25 175 8.0 24.1 0.00 0.00 0.00 62 1014.8
20260506142455 25 142 9.7 24.1 0.00 0.00 0.00 62 1014.6
20260506141601 25 135 9.7 24.1 0.00 0.00 0.00 62 1014.6
20260506141102 25 167 6.4 19.3 0.00 0.00 0.00 63 1014.6